Location: Plainartige
(45.6866°N, 1.7993°E)
Time: 04:54:38
(UTC+00:00)

Vanguard 1 - Pass Details

Date: 29 May 2022
Orbit: 649 x 3833 km, 34.2° (Epoch: 06 July)

Event Time Altitude Azimuth Distance (km) Brightness Sun altitude
Exits shadow 01:29:53 17° 235° (SW) 4,273 12.8 -19.0°
Maximum altitude 01:41:47 55° 166° (SSE) 3,480 12.5 -18.1°
Drops below altitude 10° 02:03:14 10° 98° (E) 6,920 14.7 -16.2°
Sets 02:08:55 0° 95° (E) 7,969 15.1 -15.7°
